Location: Starlight Observatory
(38.4029°N, 85.8936°W)
Time: 07:48:59
(UTC-04:00)

Amateur Radio Satellites - All Passes

Search period start: 24 May 2016 07:18
Search period end: 25 May 2016 07:18
Location: Starlight Observatory, 38.4029°N, 85.8936°W

Satellite Date Start Highest point End Downlink Frequencies (MHz)
Time Altitude Azimuth
Cosmos 2504 24 May 07:23:42 07:31:27 44° 271° (W) 07:39:33 435.465 / 435.565
RS-15 24 May 07:26:38 07:29:59 11° 267° (W) 07:33:20 29.354- 29.394
CUTE-I 24 May 07:34:54 07:39:56 40° 98° (E) 07:44:56 437.470
STRAND 1 24 May 07:49:50 07:54:47 54° 72° (ENE) 07:59:45 437.568
NOAA 18 24 May 07:52:34 07:58:03 71° 104° (ESE) 08:03:31 137.9125
GOMX 1 24 May 07:53:21 07:57:35 31° 95° (E) 08:01:32 467.674
PRISM 24 May 08:22:43 08:25:36 19° 67° (ENE) 08:28:29 437.425
Cubesat XI-IV 24 May 08:27:03 08:32:22 67° 287° (WNW) 08:37:40 437.490
LilacSat-2 24 May 08:30:41 08:34:15 41° 286° (WNW) 08:37:48 437.200
HO-68 24 May 08:34:16 08:38:56 18° 92° (E) 08:43:35 435.675
NOAA 15 24 May 08:37:11 08:42:01 37° 291° (WNW) 08:46:49 137.62
BRITE-PL 24 May 08:46:06 08:50:49 34° 291° (WNW) 08:55:12 437.365/2234.400
AO-85 24 May 08:48:41 08:53:50 41° 307° (NW) 08:58:54 145.980
AIST 1 24 May 08:48:55 08:51:13 14° 71° (ENE) 08:53:30
DOVE 4 24 May 09:02:03 09:06:32 81° 101° (E) 09:10:46 437.250
AUBIESAT-1 24 May 09:09:33 09:12:07 20° 101° (E) 09:14:39 437.475
M-CUBED/EXP-1 PRIME 24 May 09:12:25 09:15:19 28° 102° (ESE) 09:18:10 437.505
CUTE-I 24 May 09:15:27 09:19:43 25° 294° (WNW) 09:23:59 437.470
JUGNU 24 May 09:16:40 09:17:57 11° 172° (S) 09:19:14 437.505
CANX-2 24 May 09:30:12 09:34:23 51° 99° (E) 09:38:33 2200.000
STRAND 1 24 May 09:31:11 09:34:16 16° 268° (W) 09:37:22 437.568
GOMX 1 24 May 09:31:41 09:35:29 24° 293° (WNW) 09:39:04 467.674
NOAA 18 24 May 09:34:59 09:38:04 15° 299° (WNW) 09:41:10 137.9125
GONETS M04 24 May 09:36:53 09:44:41 35° 72° (ENE) 09:52:23
SEEDS 24 May 09:41:00 09:45:03 41° 98° (E) 09:49:04 437.485
CUBEBUG 2 24 May 09:41:45 09:44:34 17° 94° (E) 09:47:22 437.445
Oscar 11 24 May 09:48:58 09:49:58 11° 90° (E) 09:50:59 145.826/435.025
ZACube-1 24 May 09:55:21 09:56:16 11° 91° (E) 09:57:12 437.345
PRISM 24 May 09:56:54 10:00:38 33° 262° (W) 10:04:25 437.425
CUTE 1.7 + AOD 2 24 May 09:58:10 10:02:27 86° 287° (WNW) 10:06:44 437.475
CINEMA 3 24 May 10:01:30 10:05:42 75° 283° (WNW) 10:09:49 145.822/145.860
Cosmos 2499 24 May 10:16:41 10:24:32 38° 74° (ENE) 10:32:36 435.465 / 435.565
SO-50 24 May 10:16:54 10:20:23 20° 46° (NE) 10:23:47 436.795
UWE-3 24 May 10:17:56 10:21:40 31° 97° (E) 10:25:25 435.000/436.395/437.385
HO-68 24 May 10:20:06 10:27:16 76° 289° (WNW) 10:34:25 435.675
AIST 1 24 May 10:24:54 10:29:04 44° 268° (W) 10:33:10
ANTELSAT 24 May 10:27:33 10:30:57 22° 69° (ENE) 10:34:17 437.575/2403.000
FUNcube-1 24 May 10:33:13 10:36:52 29° 97° (E) 10:40:32 145.935
COMPASS 1 24 May 10:34:22 10:38:32 63° 284° (WNW) 10:42:42 437.405
AAUSAT CUBESAT 2 24 May 10:40:47 10:44:58 67° 284° (WNW) 10:49:06 437.432
O/OREOS (USA 219) 24 May 10:43:05 10:47:12 34° 104° (ESE) 10:51:19 437.305
AUBIESAT-1 24 May 10:44:13 10:46:31 18° 296° (WNW) 10:48:48 437.475
M-CUBED/EXP-1 PRIME 24 May 10:48:03 10:49:39 13° 298° (WNW) 10:51:14 437.505
JUGNU 24 May 11:03:52 11:06:04 12° 183° (S) 11:08:15 437.505
CANX-2 24 May 11:07:42 11:09:47 13° 295° (WNW) 11:11:52 2200.000
CUBEBUG 2 24 May 11:17:32 11:21:16 33° 288° (WNW) 11:25:01 437.445
SEEDS 24 May 11:17:50 11:20:24 16° 293° (WNW) 11:22:56 437.485
PCSat 24 May 11:19:46 11:25:05 61° 113° (ESE) 11:30:26 145.827
DUCHIFAT 1 24 May 11:21:30 11:23:41 14° 65° (ENE) 11:25:52 145.980
UNISAT 6 24 May 11:21:33 11:26:00 89° 260° (W) 11:30:21 437.425
Oscar 11 24 May 11:22:11 11:26:28 60° 285° (WNW) 11:30:43 145.826/435.025
ZACube-1 24 May 11:28:47 11:32:52 55° 285° (WNW) 11:37:00 437.345
TIGRISAT 24 May 11:30:29 11:34:54 76° 258° (WSW) 11:39:15 435.000
GONETS M04 24 May 11:33:27 11:41:38 48° 271° (W) 11:49:48
DELFI C3 24 May 11:42:51 11:46:53 70° 283° (WNW) 11:50:53 145.870
POPSAT HIP 1 24 May 11:53:15 11:57:05 34° 72° (ENE) 12:00:55 437.405
QB50P1 24 May 11:54:00 11:57:51 35° 72° (ENE) 12:01:45 145.935-145.965
QB50P2 24 May 11:54:50 11:58:46 38° 72° (ENE) 12:02:43 145.880/145.840
UWE-3 24 May 11:54:57 11:57:55 19° 292° (WNW) 12:00:54 435.000/436.395/437.385
BUGSAT 1 24 May 11:55:21 11:57:53 16° 66° (ENE) 12:00:25 437.445
JAS-2 24 May 11:55:26 11:58:46 14° 53° (NE) 12:02:10 435.910
SO-50 24 May 11:56:38 12:01:09 50° 244° (WSW) 12:05:30 436.795
POLYITAN 1 24 May 11:57:14 12:01:12 39° 72° (ENE) 12:05:09 437.675
CUSAT 1 24 May 11:59:21 12:03:08 17° 79° (E) 12:07:23 437.405
ANTELSAT 24 May 12:03:36 12:07:29 30° 263° (W) 12:11:19 437.575/2403.000
Cosmos 2499 24 May 12:09:41 12:17:40 46° 271° (W) 12:25:55 435.465 / 435.565
FUNcube-1 24 May 12:09:49 12:12:57 21° 291° (WNW) 12:16:05 145.935
HUMSAT D 24 May 12:10:20 12:14:29 81° 283° (WNW) 12:18:39 437.325/437.525
HO-68 24 May 12:10:28 12:13:48 14° 306° (NW) 12:17:08 435.675
NANOSAT C BR1 24 May 12:14:18 12:18:28 59° 74° (ENE) 12:22:38 145.865
O/OREOS (USA 219) 24 May 12:23:06 12:26:40 22° 301° (WNW) 12:30:13 437.305
ESTCUBE 1 24 May 12:25:45 12:29:33 25° 95° (E) 12:33:18 437.505/2401.250
UKube-1 24 May 12:33:33 12:35:30 13° 92° (E) 12:37:25 .
BEESAT 3 24 May 12:48:43 12:52:08 29° 114° (ESE) 12:55:35 437.485
SRMSAT 24 May 12:50:00 12:52:11 12° 180° (S) 12:54:23 437.500
DUCHIFAT 1 24 May 12:54:53 12:58:57 47° 260° (W) 13:03:03 145.980
DANDE 24 May 13:00:14 13:04:07 23° 82° (E) 13:08:52 436.750
VELOX 1 24 May 13:03:34 13:07:49 43° 99° (E) 13:12:00 145.980
PCSat 24 May 13:04:55 13:08:54 20° 312° (NW) 13:12:54 145.827
CUBEBUG 1 24 May 13:06:41 13:10:57 49° 99° (E) 13:15:09 437.445
DX 1 24 May 13:11:18 13:15:29 44° 99° (E) 13:19:37 434.975-435.025
50 SAT 24 May 13:18:27 13:22:11 84° 102° (ESE) 13:25:55 437.505
BUGSAT 1 24 May 13:28:55 13:32:56 41° 261° (W) 13:36:55 437.445
POPSAT HIP 1 24 May 13:30:00 13:32:56 18° 266° (W) 13:35:53 437.405
QB50P1 24 May 13:30:52 13:33:43 17° 266° (W) 13:36:35 145.935-145.965
QB50P2 24 May 13:32:02 13:34:42 16° 267° (W) 13:37:22 145.880/145.840
POLYITAN 1 24 May 13:34:33 13:37:09 16° 267° (W) 13:39:44 437.675
JAS-2 24 May 13:35:11 13:42:14 68° 72° (ENE) 13:49:56 435.910
CUSAT 1 24 May 13:38:18 13:44:02 72° 281° (W) 13:51:23 437.405
AISAT 24 May 13:39:03 13:43:28 69° 285° (WNW) 13:47:50 437.250
BEESAT 2 24 May 13:43:31 13:47:27 72° 119° (ESE) 13:51:26 435.950
Gurwin Techsat 1B 24 May 13:48:40 13:52:06 18° 63° (ENE) 13:55:34 435.225
SPROUT 24 May 13:50:51 13:55:04 59° 100° (E) 13:59:15 437.525
NANOSAT C BR1 24 May 13:53:51 13:54:33 10° 269° (W) 13:55:14 145.865
Oscar 19 24 May 13:54:03 13:58:59 46° 71° (ENE) 14:03:57 437.125/150
ESTCUBE 1 24 May 14:02:24 14:06:17 28° 291° (WNW) 14:10:09 437.505/2401.250
UKube-1 24 May 14:07:37 14:11:49 50° 287° (WNW) 14:15:58 .
BEESAT 3 24 May 14:26:41 14:29:50 22° 310° (NW) 14:33:01 437.485
TISAT 1 24 May 14:29:00 14:32:57 41° 99° (E) 14:36:52 437.305
ITAMSAT 1 24 May 14:29:34 14:32:43 17° 63° (ENE) 14:35:54 435.822/435.867
VELOX 1 24 May 14:41:08 14:43:54 17° 295° (WNW) 14:46:41 145.980
DANDE 24 May 14:41:38 14:46:22 42° 288° (WNW) 14:52:34 436.750
CUBEBUG 1 24 May 14:44:25 14:46:47 15° 295° (WNW) 14:49:10 437.445
DX 1 24 May 14:48:39 14:51:17 16° 295° (WNW) 14:53:55 434.975-435.025
Cosmos 2491 24 May 14:52:33 14:57:02 15° 61° (ENE) 15:01:30 435.465 / 435.565
SWISSCUBE 24 May 15:01:56 15:05:24 20° 94° (E) 15:08:50 437.505
ITUPSAT 1 24 May 15:06:06 15:09:31 19° 94° (E) 15:12:54 437.325
JAS-2 24 May 15:22:30 15:27:50 22° 271° (W) 15:33:33 435.910
AIST 2 24 May 15:22:32 15:26:31 50° 116° (ESE) 15:30:32 435.215
BEESAT 2 24 May 15:24:14 15:25:47 12° 316° (NW) 15:27:21 435.950
CUSAT 1 24 May 15:25:35 15:27:53 12° 304° (NW) 15:30:20 437.405
Gurwin Techsat 1B 24 May 15:26:21 15:31:34 57° 259° (W) 15:36:48 435.225
SPROUT 24 May 15:29:01 15:30:30 12° 296° (WNW) 15:31:59 437.525
BEESAT 24 May 15:31:22 15:35:46 35° 98° (E) 15:40:08 436.000
Oscar 19 24 May 15:34:47 15:38:31 20° 267° (W) 15:42:15 437.125/150
AO-85 24 May 15:42:57 15:45:58 17° 42° (NE) 15:48:49 145.980
AO-7 24 May 15:49:33 15:57:24 49° 64° (ENE) 16:05:17 29.400- 29.500
TISAT 1 24 May 16:05:48 16:08:15 15° 294° (WNW) 16:10:42 437.305
ITAMSAT 1 24 May 16:06:36 16:11:41 59° 259° (W) 16:16:48 435.822/435.867
SWISSCUBE 24 May 16:38:50 16:43:19 40° 289° (WNW) 16:47:47 437.505
ITUPSAT 1 24 May 16:42:59 16:47:29 41° 289° (WNW) 16:51:59 437.325
Cosmos 2491 24 May 16:46:35 16:55:24 79° 82° (E) 17:04:07 435.465 / 435.565
YUBILEINY 24 May 16:46:54 16:54:33 36° 86° (E) 17:02:11 435.215
AIST 2 24 May 17:02:36 17:05:16 16° 314° (NW) 17:07:58 435.215
BEESAT 24 May 17:09:36 17:13:19 23° 293° (WNW) 17:17:01 436.000
MOZHAYETS 4 24 May 17:14:24 17:18:46 40° 98° (E) 17:23:06
RS-15 24 May 17:20:02 17:28:26 25° 101° (E) 17:37:06 29.354- 29.394
AO-85 24 May 17:22:23 17:26:57 61° 243° (WSW) 17:31:05 145.980
KKS-1 24 May 17:25:00 17:29:27 72° 103° (ESE) 17:33:50 437.445
NOAA 18 24 May 17:39:56 17:42:58 15° 61° (ENE) 17:46:00 137.9125
AO-7 24 May 17:42:53 17:50:17 36° 262° (W) 17:57:45 29.400- 29.500
HORYU 2 24 May 17:48:05 17:52:30 81° 258° (WSW) 17:56:57 437.375
Cosmos 2504 24 May 18:08:34 18:14:31 29° 85° (E) 18:20:38 435.465 / 435.565
Cubesat XI-IV 24 May 18:09:19 18:13:14 21° 64° (ENE) 18:17:09 437.490
STARS 24 May 18:10:28 18:14:50 70° 285° (WNW) 18:19:09 437.465
BRITE-PL 24 May 18:16:13 18:20:54 28° 67° (ENE) 18:25:39 437.365/2234.400
NOAA 15 24 May 18:16:14 18:21:02 36° 69° (ENE) 18:25:52 137.62
CUBESAT XI-V 24 May 18:30:17 18:34:22 29° 96° (E) 18:38:26 437.345
YUBILEINY 24 May 18:42:51 18:51:04 46° 284° (WNW) 18:59:21 435.215
Cosmos 2491 24 May 18:45:27 18:51:08 20° 281° (W) 18:56:49 435.465 / 435.565
MOZHAYETS 4 24 May 18:52:22 18:55:37 19° 294° (WNW) 18:58:52
CUTE-I 24 May 18:55:12 19:00:22 57° 73° (ENE) 19:05:34 437.470
GOMX 1 24 May 18:58:44 19:03:36 34° 70° (ENE) 19:08:27 467.674
HO-68 24 May 19:04:16 19:07:05 13° 53° (NE) 19:09:54 435.675
KKS-1 24 May 19:04:27 19:05:23 11° 298° (WNW) 19:06:18 437.445
LilacSat-2 24 May 19:10:40 19:14:28 72° 77° (ENE) 19:18:15 437.200
NOAA 18 24 May 19:17:32 19:22:59 72° 257° (WSW) 19:28:28 137.9125
RS-15 24 May 19:28:02 19:39:21 82° 301° (WNW) 19:51:24 29.354- 29.394
Cubesat XI-IV 24 May 19:47:51 19:52:56 47° 260° (W) 19:58:04 437.490
AUBIESAT-1 24 May 19:53:42 19:57:17 27° 66° (ENE) 20:00:40 437.475
BRITE-PL 24 May 19:53:56 19:59:06 40° 264° (W) 20:04:27 437.365/2234.400
NOAA 15 24 May 19:56:26 20:00:50 26° 264° (W) 20:05:16 137.62
M-CUBED/EXP-1 PRIME 24 May 19:56:52 20:00:50 37° 68° (ENE) 20:04:34 437.505
Cosmos 2504 24 May 20:00:41 20:07:29 45° 284° (WNW) 20:14:37 435.465 / 435.565
STRAND 1 24 May 20:02:35 20:06:26 21° 94° (E) 20:10:14 437.568
DOVE 4 24 May 20:04:39 20:09:54 70° 75° (ENE) 20:15:01 437.250
CUBESAT XI-V 24 May 20:07:42 20:11:38 27° 291° (WNW) 20:15:33 437.345
PCSat 24 May 20:09:17 20:14:16 36° 55° (NE) 20:19:13 145.827
CANX-2 24 May 20:21:43 20:25:21 29° 71° (ENE) 20:29:00 2200.000
SEEDS 24 May 20:31:41 20:35:02 24° 69° (ENE) 20:38:24 437.485
GOMX 1 24 May 20:36:47 20:41:35 31° 265° (W) 20:46:24 467.674
CUTE-I 24 May 20:37:29 20:40:45 16° 268° (W) 20:44:02 437.470
CUBEBUG 2 24 May 20:39:19 20:41:35 14° 66° (ENE) 20:43:50 437.445
HO-68 24 May 20:46:26 20:53:31 70° 71° (ENE) 21:00:38 435.675
CUTE 1.7 + AOD 2 24 May 20:49:07 20:53:11 53° 74° (ENE) 20:57:18 437.475
O/OREOS (USA 219) 24 May 20:54:11 20:58:34 51° 66° (ENE) 21:02:54 437.305
CINEMA 3 24 May 21:00:43 21:05:35 81° 76° (ENE) 21:10:14 145.822/145.860
BEESAT 3 24 May 21:08:10 21:10:11 13° 45° (NE) 21:12:12 437.485
UWE-3 24 May 21:13:52 21:17:14 23° 69° (ENE) 21:20:34 435.000/436.395/437.385
COMPASS 1 24 May 21:23:15 21:27:21 68° 75° (ENE) 21:31:28 437.405
FUNcube-1 24 May 21:27:54 21:30:59 20° 68° (ENE) 21:34:02 145.935
AUBIESAT-1 24 May 21:28:17 21:31:42 23° 258° (WSW) 21:34:57 437.475
AAUSAT CUBESAT 2 24 May 21:29:11 21:33:14 63° 76° (ENE) 21:37:20 437.432
M-CUBED/EXP-1 PRIME 24 May 21:32:28 21:35:24 18° 260° (W) 21:38:15 437.505
PRISM 24 May 21:39:40 21:43:30 34° 98° (E) 21:47:18 437.425
STRAND 1 24 May 21:40:54 21:45:45 43° 289° (WNW) 21:50:35 437.568
RS-15 24 May 21:44:27 21:54:00 28° 329° (NNW) 22:04:00 29.354- 29.394
DOVE 4 24 May 21:45:29 21:47:57 13° 270° (W) 21:50:24 437.250
PCSat 24 May 21:52:51 21:57:32 30° 252° (WSW) 22:02:11 145.827
CANX-2 24 May 21:58:03 22:01:12 21° 266° (W) 22:04:23 2200.000
BEESAT 2 24 May 22:03:17 22:06:43 27° 51° (NE) 22:10:06 435.950
SEEDS 24 May 22:07:11 22:10:37 25° 265° (W) 22:14:06 437.485
CUBEBUG 2 24 May 22:13:28 22:17:49 50° 260° (W) 22:22:03 437.445
Oscar 11 24 May 22:14:59 22:19:16 85° 80° (E) 22:23:36 145.826/435.025
ZACube-1 24 May 22:22:41 22:26:58 89° 240° (WSW) 22:31:12 437.345
DELFI C3 24 May 22:27:05 22:30:55 51° 74° (ENE) 22:34:47 145.870
CUTE 1.7 + AOD 2 24 May 22:28:03 22:29:21 11° 269° (W) 22:30:39 437.475
CUSAT 1 24 May 22:34:53 22:39:20 16° 60° (ENE) 22:43:31 437.405
O/OREOS (USA 219) 24 May 22:35:21 22:37:27 13° 262° (W) 22:39:33 437.305
GONETS M04 24 May 22:35:53 22:43:57 43° 87° (E) 22:52:01
HO-68 24 May 22:36:51 22:41:47 20° 268° (W) 22:46:44 435.675
BEESAT 3 24 May 22:44:21 22:48:15 59° 242° (WSW) 22:52:06 437.485
UWE-3 24 May 22:49:47 22:53:34 28° 263° (W) 22:57:17 435.000/436.395/437.385
AIST 1 24 May 22:51:58 22:56:20 72° 277° (W) 23:00:45
Cosmos 2499 24 May 22:53:08 22:58:56 27° 83° (E) 23:05:00 435.465 / 435.565
HUMSAT D 24 May 22:59:57 23:03:56 54° 75° (ENE) 23:07:56 437.325/437.525
FUNcube-1 24 May 23:03:13 23:07:02 31° 263° (W) 23:10:47 145.935
ISS 24 May 23:13:21 23:16:32 52° 137° (SE) 23:19:43 145.825
UNISAT 6 24 May 23:15:26 23:18:36 20° 95° (E) 23:21:47 437.425
PRISM 24 May 23:15:41 23:18:33 18° 293° (WNW) 23:21:24 437.425
TIGRISAT 24 May 23:23:55 23:27:21 23° 95° (E) 23:30:48 435.000
ESTCUBE 1 24 May 23:24:17 23:27:35 20° 67° (ENE) 23:30:54 437.505/2401.250
PHONESAT 2.4 24 May 23:26:37 23:28:35 16° 147° (SSE) 23:30:34 2401.200-2431.200
DANDE 24 May 23:38:47 23:45:43 28° 67° (ENE) 23:52:19 436.750
BEESAT 2 24 May 23:41:11 23:44:27 24° 248° (WSW) 23:47:41 435.950
AIST 2 24 May 23:45:37 23:48:56 22° 49° (NE) 23:52:13 435.215
50 SAT 24 May 23:55:33 23:58:40 28° 71° (ENE) 00:01:49 437.505
ANTELSAT 24 May 23:55:56 00:00:10 58° 101° (E) 00:04:26 437.575/2403.000
VELOX 1 24 May 23:59:24 00:03:23 32° 70° (ENE) 00:07:21 145.980
CUBEBUG 1 25 May 00:01:04 00:05:04 34° 71° (ENE) 00:09:05 437.445
NANOSAT C BR1 25 May 00:03:33 00:03:48 10° 91° (E) 00:04:04 145.865
RS-15 25 May 00:04:48 00:12:30 18° 5° (N) 00:20:18 29.354- 29.394
DX 1 25 May 00:05:21 00:09:14 32° 70° (ENE) 00:13:09 434.975-435.025
DELFI C3 25 May 00:05:28 00:06:05 10° 269° (W) 00:06:42 145.870
CUSAT 1 25 May 00:14:55 00:22:53 82° 80° (E) 00:29:33 437.405
GONETS M04 25 May 00:32:37 00:40:44 40° 286° (WNW) 00:48:51
AISAT 25 May 00:34:28 00:38:56 85° 80° (E) 00:43:27 437.250
HUMSAT D 25 May 00:39:21 00:39:53 10° 269° (W) 00:40:25 437.325/437.525
DUCHIFAT 1 25 May 00:40:44 00:44:19 28° 96° (E) 00:47:54 145.980
SPROUT 25 May 00:42:54 00:46:51 36° 71° (ENE) 00:50:47 437.525
Cosmos 2499 25 May 00:44:40 00:51:32 49° 283° (WNW) 00:58:53 435.465 / 435.565
ISS 25 May 00:50:39 00:53:10 20° 334° (NNW) 00:55:41 145.825
UNISAT 6 25 May 00:51:33 00:55:22 32° 289° (WNW) 00:59:11 437.425
ESTCUBE 1 25 May 01:00:00 01:04:08 35° 262° (W) 01:08:18 437.505/2401.250
UKube-1 25 May 01:00:09 01:04:28 75° 258° (WSW) 01:08:50 .
TIGRISAT 25 May 01:00:24 01:04:00 27° 290° (WNW) 01:07:38 435.000
PHONESAT 2.4 25 May 01:01:52 01:05:00 72° 161° (SSE) 01:08:07 2401.200-2431.200
BUGSAT 1 25 May 01:12:25 01:15:57 28° 97° (E) 01:19:26 437.445
POPSAT HIP 1 25 May 01:14:40 01:18:52 80° 100° (E) 01:23:03 437.405
QB50P1 25 May 01:15:23 01:19:36 83° 105° (ESE) 01:23:47 145.935-145.965
QB50P2 25 May 01:16:31 01:20:45 89° 254° (WSW) 01:24:57 145.880/145.840
POLYITAN 1 25 May 01:18:57 01:23:10 88° 284° (WNW) 01:27:22 437.675
TISAT 1 25 May 01:19:24 01:22:55 26° 70° (ENE) 01:26:26 437.305
DANDE 25 May 01:20:49 01:29:12 67° 266° (W) 01:36:51 436.750
AIST 2 25 May 01:23:43 01:27:28 33° 246° (WSW) 01:31:10 435.215
50 SAT 25 May 01:30:13 01:32:27 16° 266° (W) 01:34:42 437.505
ANTELSAT 25 May 01:34:47 01:36:23 12° 296° (WNW) 01:38:00 437.575/2403.000
NANOSAT C BR1 25 May 01:35:46 01:39:52 58° 286° (WNW) 01:43:58 145.865
VELOX 1 25 May 01:36:28 01:39:52 21° 265° (W) 01:43:17 145.980
CUBEBUG 1 25 May 01:38:09 01:41:24 20° 266° (W) 01:44:41 437.445
DX 1 25 May 01:42:09 01:45:27 21° 265° (W) 01:48:47 434.975-435.025
CUSAT 1 25 May 01:59:02 02:03:45 18° 281° (W) 02:08:06 437.405
SWISSCUBE 25 May 02:07:17 02:10:40 20° 66° (ENE) 02:14:05 437.505
Oscar 19 25 May 02:08:08 02:11:37 18° 93° (E) 02:15:04 437.125/150
SO-50 25 May 02:08:28 02:13:21 75° 119° (ESE) 02:18:16 436.795
ITUPSAT 1 25 May 02:11:44 02:15:07 20° 65° (ENE) 02:18:29 437.325
DUCHIFAT 1 25 May 02:16:39 02:19:52 22° 292° (WNW) 02:23:04 145.980
RS-15 25 May 02:19:23 02:30:21 36° 39° (NE) 02:41:18 29.354- 29.394
SPROUT 25 May 02:20:01 02:22:53 17° 267° (W) 02:25:46 437.525
JAS-2 25 May 02:32:03 02:39:37 71° 101° (E) 02:46:21 435.910
BEESAT 25 May 02:36:20 02:40:37 35° 70° (ENE) 02:44:55 436.000
PHONESAT 2.4 25 May 02:38:44 02:41:50 55° 358° (N) 02:44:55 2401.200-2431.200
BUGSAT 1 25 May 02:48:11 02:51:08 20° 292° (WNW) 02:54:04 437.445
TISAT 1 25 May 02:55:03 02:58:30 24° 264° (W) 03:01:56 437.305
YUBILEINY 25 May 02:59:47 03:04:42 16° 62° (ENE) 03:09:35 435.215
DANDE 25 May 03:07:36 03:10:25 12° 284° (WNW) 03:13:10 436.750
SWISSCUBE 25 May 03:43:42 03:48:09 41° 261° (W) 03:52:40 437.505
Gurwin Techsat 1B 25 May 03:43:56 03:49:14 65° 102° (ESE) 03:54:30 435.225
Oscar 19 25 May 03:46:13 03:51:11 49° 288° (WNW) 03:56:06 437.125/150
ITUPSAT 1 25 May 03:48:08 03:52:38 42° 261° (W) 03:57:09 437.325
SO-50 25 May 03:51:18 03:54:24 16° 317° (NW) 03:57:28 436.795
Cosmos 2491 25 May 03:53:10 03:58:26 18° 78° (ENE) 04:03:40 435.465 / 435.565
AO-7 25 May 03:54:58 03:59:26 15° 90° (E) 04:03:52 29.400- 29.500
ISS 25 May 04:07:23 04:08:21 11° 15° (NNE) 04:09:19 145.825
BEESAT 25 May 04:14:46 04:18:27 22° 265° (W) 04:22:09 436.000
MOZHAYETS 4 25 May 04:14:56 04:18:56 32° 70° (ENE) 04:22:59
PHONESAT 2.4 25 May 04:15:35 04:18:44 87° 23° (NNE) 04:21:51 2401.200-2431.200
JAS-2 25 May 04:18:13 04:23:46 23° 301° (WNW) 04:28:59 435.910
ITAMSAT 1 25 May 04:20:48 04:25:56 55° 101° (E) 04:31:03 435.822/435.867
KKS-1 25 May 04:21:17 04:25:39 53° 73° (ENE) 04:30:01 437.445
RS-15 25 May 04:31:51 04:44:11 80° 244° (WSW) 04:56:25 29.354- 29.394
YUBILEINY 25 May 04:54:04 05:02:52 83° 83° (E) 05:11:40 435.215
STARS 25 May 05:05:11 05:09:36 84° 78° (ENE) 05:14:02 437.465
Gurwin Techsat 1B 25 May 05:25:30 05:28:37 16° 298° (WNW) 05:31:43 435.225
CUBESAT XI-V 25 May 05:32:20 05:36:04 24° 68° (ENE) 05:39:49 437.345
HORYU 2 25 May 05:41:12 05:44:34 21° 95° (E) 05:47:54 437.375
ISS 25 May 05:42:26 05:45:31 39° 33° (NNE) 05:48:36 145.825
AO-7 25 May 05:44:48 05:53:13 85° 107° (ESE) 06:01:36 29.400- 29.500
Cosmos 2491 25 May 05:45:09 05:54:01 86° 277° (W) 06:02:54 435.465 / 435.565
MOZHAYETS 4 25 May 05:52:34 05:56:07 22° 266° (W) 05:59:42
PHONESAT 2.4 25 May 05:52:44 05:55:15 22° 210° (SSW) 05:57:45 2401.200-2431.200
Cosmos 2504 25 May 05:52:55 06:01:12 59° 80° (E) 06:09:50 435.465 / 435.565
KKS-1 25 May 06:00:29 06:02:30 13° 268° (W) 06:04:33 437.445
ITAMSAT 1 25 May 06:01:31 06:04:56 18° 297° (WNW) 06:08:22 435.822/435.867
NOAA 15 25 May 06:34:11 06:37:06 15° 91° (E) 06:39:59 137.62
RS-15 25 May 06:47:25 06:54:40 18° 263° (W) 07:01:54 29.354- 29.394
YUBILEINY 25 May 06:53:05 06:58:30 18° 281° (WNW) 07:03:55 435.215
CUBESAT XI-V 25 May 07:09:09 07:13:17 31° 264° (W) 07:17:28 437.345
